Location: Prague
(50.0830°N, 14.4670°E)
Time: 02:11:38
(UTC+01:00)

Oscar 11 - Pass Details

Date: 03 December 2021
Orbit: 611 x 625 km, 97.6° (Epoch: 17 January)

Event Time Altitude Azimuth Distance (km) Brightness Sun altitude
Rises 04:01:44 0° 32° (NNE) 2,918 11.0 -34.3°
Reaches altitude 10° 04:05:43 10° 69° (ENE) 2,000 10.4 -33.7°
Maximum altitude 04:06:55 11° 85° (E) 1,930 10.4 -33.5°
Drops below altitude 10° 04:08:08 10° 102° (ESE) 1,993 10.4 -33.3°
Sets 04:12:03 0° 138° (SE) 2,886 11.0 -32.7°
